Dewpoint
52 52 52 50 51 52 52 52 52 51 51 51 49 50 48 49 50 49 46 48 50 51 54 51 51 50 54 52 54 53 44 38 38 38 39 45 42 45 44 38 53 60 60 62 66
51 51 52 51 48 49 51 51 51 51 50 48 49 49 48 49 46 44 48 52 55 54 50 50 48 48 50 49 51 48 43 40 41 42 44 44 44 45 42 40 40 42 45 64 64
50 51 51 52 48 49 51 51 51 50 49 48 49 48 48 48 39 34 48 51 54 54 49 52 48 47 47 49 49 48 42 41 42 46 46 45 46 45 41 36 43 42 43 56 64
49 51 50 51 49 48 49 50 49 49 48 48 49 48 48 44 21 39 49 51 53 51 49 49 48 44 45 45 47 45 45 43 47 48 47 46 46 44 44 41 45 45 48 57 62
48 49 50 50 50 48 47 49 49 49 48 47 46 46 43 37 34 40 47 49 50 50 43 47 46 43 42 44 44 42 44 45 49 49 47 46 44 43 43 44 44 44 46 59 60
49 46 50 50 50 48 49 47 48 48 48 47 47 45 40 30 35 40 40 45 43 48 42 46 46 43 42 44 43 43 41 45 48 48 44 43 44 42 42 43 43 44 44 49 60
51 47 47 50 50 50 49 49 46 47 47 47 46 43 39 32 39 40 40 43 43 43 41 44 48 44 44 44 45 44 42 46 46 47 46 44 42 42 43 43 43 43 43 41 51
50 50 47 47 49 49 50 49 47 45 46 46 47 42 32 38 39 39 41 41 45 43 44 48 50 44 43 44 44 41 42 39 44 45 47 44 39 41 43 44 43 43 43 42 37
50 49 47 47 49 49 51 50 48 45 45 46 42 39 30 39 37 38 42 40 41 45 48 47 50 43 42 40 38 39 35 36 41 43 45 41 38 39 44 43 44 43 42 41 39
50 50 48 46 49 49 50 49 47 45 46 46 44 32 35 34 37 38 45 44 42 42 44 44 42 41 39 38 29 34 34 35 35 41 42 39 39 39 44 43 42 44 42 38 36
49 50 48 47 48 48 46 40 36 36 39 34 35 34 35 39 40 41 43 41 39 40 37 40 36 34 36 35 33 34 33 33 37 41 40 40 38 39 43 45 44 43 42 40 38
49 49 47 46 49 47 41 36 35 35 29 36 37 35 39 41 34 40 42 36 37 35 37 37 34 36 38 37 35 34 32 32 33 39 37 38 37 38 43 42 45 44 42 39 35
48 47 46 49 46 42 38 38 41 41 32 36 38 38 38 39 35 37 40 37 36 35 36 34 36 38 38 37 34 33 31 31 31 37 34 35 34 38 40 41 43 43 42 40 33
47 47 47 46 44 40 38 41 42 40 25 32 33 37 39 40 34 41 40 36 35 35 37 36 40 37 37 36 34 32 33 32 32 34 31 34 28 35 37 39 41 42 40 39 33
47 47 47 44 40 39 41 43 41 37 12 36 35 43 40 36 36 36 42 38 34 35 37 36 38 36 35 36 35 33 33 31 31 29 29 28 29 29 34 36 37 40 40 38 35
47 47 47 46 44 45 44 44 38 19 13 33 37 35 32 35 35 37 37 42 39 37 37 37 41 41 37 38 35 33 32 32 31 30 29 28 29 28 25 33 35 35 35 36 34
48 48 46 45 40 46 45 40 21 17 28 33 33 36 32 31 32 34 35 34 30 31 32 37 38 41 39 37 37 32 31 28 26 27 24 26 26 28 28 26 27 27 29 32 33
48 49 46 44 46 45 41 27 15 26 31 36 37 35 34 35 36 32 33 31 34 35 34 31 29 38 38 36 33 31 28 25 19 22 23 26 24 25 28 28 28 27 28 30 31
45 42 43 44 45 44 33 16 18 20 29 34 34 34 35 34 34 34 33 33 34 35 31 32 31 39 40 39 36 33 30 27 22 20 21 22 23 23 24 25 27 28 29 31 31
39 38 40 46 45 40 28 26 23 28 33 35 30 32 31 33 34 35 34 35 36 37 37 33 31 36 38 39 38 34 31 27 24 18 17 18 19 19 21 21 22 23 30 33 37
38 36 41 46 45 35 21 26 30 33 35 34 33 29 31 32 32 30 31 35 37 36 33 32 32 34 36 34 34 34 31 28 26 22 18 16 17 22 22 21 22 23 29 36 39
35 30 42 45 36 31 27 30 36 35 36 35 35 33 28 29 29 29 29 30 36 35 30 31 31 31 34 36 37 36 32 28 25 21 19 18 19 20 21 24 25 29 34 39 41
33 33 39 44 25 27 31 34 35 34 34 34 30 30 29 28 28 30 30 33 36 35 32 32 27 27 29 31 33 35 35 30 26 25 20 22 22 20 24 28 33 33 37 40 41
30 27 31 35 33 30 30 31 32 36 33 32 30 29 28 28 30 29 30 33 33 33 38 33 28 24 20 22 29 31 33 32 30 29 24 23 23 25 25 26 27 33 36 39 41
28 27 29 24 29 29 30 32 32 32 34 33 30 32 29 26 28 28 31 31 30 37 32 30 25 24 26 27 30 31 32 33 30 30 28 26 26 27 28 27 26 28 34 37 40
25 25 26 25 27 27 30 30 32 33 33 32 31 33 30 27 27 28 30 29 29 30 30 29 24 26 24 29 29 28 29 32 33 33 30 30 30 31 30 28 29 29 33 36 38
29 30 28 26 25 27 25 27 32 33 36 35 34 31 31 32 32 31 31 31 30 29 28 27 25 24 20 26 24 21 24 28 31 33 33 30 31 32 32 33 33 31 34 35 37
Lifted_Index
12 12 10 9 7 5 4 3 3 3 3 2 1 -0 0 1 3 4 4 4 3 2 1 1 1 0 -0 -0 -0 -0 0 1 2 2 1 1 2 3 3 2 -0 -2 -3 -3 -4
13 12 10 9 7 6 4 3 3 3 3 3 1 0 -0 1 3 4 4 4 3 2 1 1 1 1 0 -0 -0 -0 0 1 1 1 1 1 2 2 3 2 0 -1 -2 -3 -4
14 13 11 9 8 6 4 4 3 4 4 3 1 0 -0 1 3 4 4 3 3 2 2 1 1 1 1 0 0 0 1 1 1 1 1 0 1 2 2 2 1 0 -1 -3 -5
15 13 11 9 8 6 5 4 4 4 4 3 2 0 0 1 2 3 3 3 2 2 2 1 1 1 1 1 1 1 0 0 0 0 0 0 0 1 2 2 2 1 -0 -3 -4
15 14 12 9 7 6 6 5 5 4 4 3 1 1 1 2 2 3 3 3 2 2 2 1 1 2 2 1 1 1 1 -0 -0 0 0 1 1 1 1 2 2 1 -0 -2 -4
15 14 12 10 8 6 6 5 5 5 4 2 1 1 1 2 2 2 3 3 2 2 2 2 1 1 2 1 1 1 1 -0 -0 -0 0 1 1 1 1 2 2 1 -0 -2 -2
15 15 13 10 8 6 5 5 5 5 4 2 1 1 1 1 1 1 2 3 3 3 2 2 1 1 1 1 1 1 0 -0 -0 0 0 1 1 1 1 2 2 1 -0 -1 -2
15 15 13 11 8 6 5 5 5 5 4 2 1 1 1 1 0 1 2 3 3 3 2 2 1 1 1 1 1 1 0 0 0 1 1 1 1 1 1 2 2 1 0 -1 -1
15 15 14 12 9 7 6 5 5 5 4 3 2 1 1 0 1 1 1 2 3 3 2 1 1 1 1 1 1 1 1 1 1 1 2 2 2 1 1 1 2 1 1 -0 -1
15 15 14 12 9 7 6 6 6 6 5 4 3 2 1 1 1 0 0 1 2 3 2 2 2 1 1 1 2 2 2 2 1 1 2 2 2 2 2 2 2 1 1 1 0
15 15 14 13 10 8 7 7 7 6 5 4 3 2 1 1 1 0 0 1 2 2 2 2 2 2 1 2 2 2 2 2 1 1 1 2 2 3 3 2 2 1 2 2 2
16 16 15 13 10 8 8 8 8 7 6 4 3 2 1 1 1 0 0 1 2 2 2 2 2 2 1 1 2 2 1 1 1 1 1 1 2 3 3 3 2 2 2 3 3
16 16 15 13 11 9 9 9 9 7 5 4 3 2 1 1 1 1 1 1 1 1 2 2 2 2 1 1 1 2 1 1 1 1 1 1 2 3 3 3 3 2 2 3 4
17 16 15 13 11 9 8 9 9 7 5 3 2 2 1 1 1 1 1 1 1 1 2 2 2 2 1 1 1 2 1 1 1 1 1 1 2 3 3 3 3 3 2 3 4
17 16 15 14 11 9 9 9 8 6 3 2 2 2 2 1 1 1 1 1 1 1 2 2 2 2 1 1 1 1 1 1 1 1 2 2 2 2 3 3 4 3 3 3 4
16 16 15 13 12 10 9 8 7 4 3 2 2 2 2 2 2 2 1 1 1 1 2 2 2 1 1 1 1 1 1 1 1 1 2 2 2 2 3 3 3 3 3 4 4
16 16 15 13 12 11 9 7 4 3 3 2 2 2 2 2 1 1 1 1 1 1 2 2 1 1 1 1 1 1 1 1 1 1 1 2 2 2 3 3 3 3 4 4 4
16 15 14 13 13 11 9 5 3 3 3 3 2 2 2 1 1 1 1 1 1 1 1 1 1 1 1 1 1 1 1 2 1 1 2 2 3 3 3 3 3 3 4 4 5
15 14 14 14 13 11 8 5 3 3 3 2 2 2 2 2 1 2 2 2 2 2 2 1 1 1 1 1 1 2 2 2 2 2 2 2 3 3 3 3 3 4 4 4 5
15 14 14 14 13 11 8 5 4 3 3 3 2 2 2 2 2 2 2 2 2 2 2 2 1 1 1 1 2 2 2 2 3 2 1 2 2 3 3 3 4 4 4 4 4
14 14 13 14 13 11 8 6 4 3 3 3 2 2 2 2 2 2 2 2 2 2 2 2 1 1 1 2 2 2 2 2 2 2 1 1 2 2 3 3 4 4 4 4 4
14 13 13 13 12 11 9 7 4 3 3 2 2 2 2 2 2 2 2 2 2 2 2 2 1 1 1 2 2 2 2 2 2 2 2 2 2 3 3 3 3 4 4 4 4
13 13 13 13 12 11 9 7 5 3 2 2 2 2 2 2 2 2 2 2 2 2 2 2 2 1 1 2 3 3 2 2 2 3 3 2 3 3 3 3 3 3 4 4 3
14 13 13 13 12 12 10 7 5 4 3 2 2 2 3 3 3 3 2 2 2 2 2 2 2 2 2 2 2 2 2 2 2 3 3 3 3 3 2 2 3 3 3 3 3
14 14 13 13 13 13 11 8 6 4 3 3 3 3 3 3 3 3 3 2 2 2 2 2 2 2 2 2 2 2 2 2 3 3 3 3 3 3 2 2 2 3 3 2 2
15 15 14 14 13 13 12 9 6 4 3 3 3 3 3 3 3 3 3 3 2 2 2 2 2 2 2 2 2 2 2 3 3 3 3 3 3 2 2 3 3 2 2 2 2
17 16 15 14 14 13 12 10 7 5 3 3 3 3 3 3 3 3 3 3 3 2 3 3 2 2 2 2 2 2 2 2 3 3 3 3 2 2 2 3 3 2 2 2 1